Погода в Ровине

Хорватия     45°04′50″N   13°38′30″E
темп.,
°C
ветер,
м/с
пор.,
м/с
влажн.,
%
обл.,
%
осадки,
мм/ч
давл.,
гПа
погр.,
м
18 апреля, вс
вс1823:00+8всв71368100 0.0 1015797
02:00+7св6127394 0.0 1015705
05:00+6св611765 0.0 1015638
08:00+8всв61072100 0.0 1015846
11:00+10всв7961100 0.0 10161129
14:00+11в795996 0.0 10161135
17:00+11в676198 0.0 1015944
20:00+8в61077100 0.0 1016424
19 апреля, пн
пн1923:00+7всв4779100 0.0 1017222
02:00+7ссв2378100 0.0 101692
05:00+7в2275100 0.0 101588
08:00+8св2472100 0.0 1016219
11:00+12св245580 0.0 1015929
14:00+11зсз446999 0.5 1015488
17:00+11ссз2274100 0.5 1014362
20:00+9ссв228574 1.4 101578
20 апреля, вт
вт2023:00+8св3486100 0.0 1015127
02:00+8с5888100 0.3 1015320
05:00+8ссв3380100 0.4 1015123
08:00+9ссв227614 0.4 1015115
11:00+12сз347322 0.1 1016721
14:00+12зсз44718 0.6 1016721
17:00+12зсз33693 0.0 1015446
20:00+10з01771 0.0 101640
21 апреля, ср
ср2123:00+9вюв117722 0.0 101736
02:00+10вюв237699 0.0 101777
05:00+10в348096 0.0 1017136
08:00+11вюв588367 0.0 1018422
11:00+13ююв45748 0.6 1019617
14:00+13ююз56736 1.0 1019685
17:00+13ю45652 0.0 1018600
20:00+11юв47900 0.0 1019192
22 апреля, чт
чт2223:00+10вюв35914 0.0 1020139
02:00+9в36904 0.1 1020133
05:00+9в47926 0.0 1019142
08:00+12вюв58875 0.1 1020316
11:00+14ююв44775 0.9 1020454
14:00+14ю44755 2.0 1021550
17:00+14ю44690 0.1 1020546
20:00+12вюв34860 0.1 102060